{"data":{"norad_id":66298,"intl_designator":"2025-248F","name":"SEMI-1P","alt_names":[],"object_type":"PAYLOAD","status":"ACTIVE","operator":null,"country":"TURK","launch_date":"2025-11-02","launch_site_code":"AFETR","launch_vehicle":null,"mission":null,"orbit_class":"UNKNOWN","rcs_meters":null,"size_class":null,"mass_kg":null,"dimensions":null,"purposes":[],"wikipedia_slug":null,"has_3d_model":false,"image_url":null,"decayed_at":null,"tle_current":{"epoch":"2026-09-20T04:36:40.239360Z","epoch_age_seconds":158329,"freshness":"FRESH","line1":"1 66298U 25248F   26263.19213240  .00004731  00000+0  21648-3 0  9991","line2":"2 66298  45.4006 329.5190 0011947 208.0565 151.9679 15.21846460 49007","mean_motion":15.2184646,"eccentricity":0.0011947,"inclination_deg":45.4006,"raan_deg":329.519,"arg_perigee_deg":208.0565,"mean_anomaly_deg":151.9679,"bstar":0.00021648,"rev_number":4900,"period_min":94.621897665025,"perigee_km":492.05362164583,"apogee_km":508.48889033269,"semimajor_km":6878.4082559893,"source":"CELESTRAK","updated_at":"2026-09-21T09:00:15.898802Z"}}}